Weather History for Pecs, Hungary

Change the Weather History Date:

Sunday, February 2, 2014

  Actual Average Record
Temperature  
Mean Temperature 29 °F -  
Max Temperature 31 °F 42 °F - ()
Min Temperature 26 °F 29 °F - ()
Degree Days  
Heating Degree Days 36    
Moisture  
Dew Point 26 °F    
Average Humidity 84    
Maximum Humidity 93    
Minimum Humidity 75    
Precipitation  
Precipitation 0.04 in 0.04 in - ()
Sea Level Pressure  
Sea Level Pressure 30.08 in    
Wind  
Wind Speed 10 mph ()    
Max Wind Speed 14 mph    
Max Gust Speed -    
Visibility 7.7 miles    
Events Rain    
T = Trace of Precipitation, MM = Missing Value Source: Averaged Metar Reports

Daily Weather History Graph

Daily Weather History Graph

Search for Another Location

Airport:

Trip Planner

Search our weather history database for the weather conditions in past years. The results will help you decide how hot, cold, wet, or windy it might be!

Date:

Astronomy

Feb. 02, 2014 Rise Set
Actual Time 7:08 AM CET 4:53 PM CET
Civil Twilight 6:36 AM CET 5:25 PM CET
Nautical Twilight 6:00 AM CET 6:01 PM CET
Astronomical Twilight 5:25 AM CET 6:36 PM CET
Moon 8:12 AM CET (2/2) 8:31 PM CET (2/2)
Length of Visible Light 10h 48m
Length of Day
9h 45m
Waxing Crescent, 9% of the Moon is Illuminated
Feb 2
Waxing Crescent
Feb 6
First Quarter
Feb 15
Full
Feb 22
Last Quarter
Mar 1
New

Hourly Weather History & Observations

Time (CET) Temp. Windchill Dew Point Humidity Pressure Visibility Wind Dir Wind Speed Gust Speed Precip Events Conditions
12:00 AM 28 °F - 26 °F 89% 30.07 in 6 mi East 11.2 mph - -   Partly Cloudy
12:45 AM 28.4 °F 19.1 °F 24.8 °F 86% 30.04 in 6.2 mi East 10.4 mph - N/A   Overcast
1:00 AM 28 °F - 25 °F 84% 30.07 in 6 mi East 11.2 mph - -   Partly Cloudy
1:16 AM 28.4 °F 18.5 °F 24.8 °F 86% 30.04 in - East 11.5 mph - N/A   Unknown
1:40 AM 28.4 °F 19.7 °F 24.8 °F 86% 30.06 in 6.2 mi East 9.2 mph - N/A Rain Light Freezing Rain
1:45 AM 28.4 °F 19.7 °F 24.8 °F 86% 30.04 in 6.2 mi East 9.2 mph - N/A Rain Light Freezing Rain
2:00 AM 28 °F - 25 °F 84% 30.06 in 6 mi East 8.9 mph - -   Light Freezing Rain
2:45 AM 28.4 °F 19.1 °F 24.8 °F 86% 30.01 in 6.2 mi East 10.4 mph - N/A Rain Light Freezing Rain
3:00 AM 28 °F - 25 °F 84% 30.05 in 6 mi East 8.9 mph - -   Light Freezing Rain
3:45 AM 28.4 °F 18.0 °F 26.6 °F 93% 30.01 in 5.0 mi East 12.7 mph - N/A Rain Light Freezing Rain
4:00 AM 29 °F - 26 °F 84% 30.04 in 5 mi East 13.4 mph - -   Light Freezing Rain
4:45 AM 28.4 °F 18.5 °F 26.6 °F 93% 30.01 in 5.0 mi East 11.5 mph - N/A Rain Light Freezing Rain
5:00 AM 29 °F - 27 °F 88% 30.04 in 5 mi East 11.2 mph - -   Light Freezing Rain
5:15 AM 30.2 °F 21.3 °F 26.6 °F 86% 30.01 in 5.0 mi East 10.4 mph - N/A Rain Light Freezing Rain
5:45 AM 28.4 °F 18.5 °F 26.6 °F 93% 30.01 in 5.0 mi East 11.5 mph - N/A Rain Light Freezing Rain
6:00 AM 29 °F - 26 °F 84% 30.04 in 5 mi East 11.2 mph - -   Light Freezing Rain
6:00 AM - - - N/A% - 5.0 mi East 13.8 mph - N/A Rain Rain
6:15 AM 28.4 °F 19.1 °F 26.6 °F 93% 30.01 in 5.0 mi East 10.4 mph - N/A Rain Light Freezing Rain
6:45 AM 28.4 °F 19.1 °F 26.6 °F 93% 30.01 in 5.0 mi East 10.4 mph - N/A Rain Light Freezing Rain
7:00 AM 29 °F - 27 °F 88% 30.05 in 5 mi East 11.2 mph - -   Light Freezing Rain
7:15 AM 28.4 °F 19.1 °F 26.6 °F 93% 30.04 in 5.0 mi East 10.4 mph - N/A Rain Light Freezing Rain
7:45 AM 28.4 °F 19.1 °F 26.6 °F 93% 30.04 in 5.0 mi East 10.4 mph - N/A Rain Light Freezing Rain
8:00 AM 29 °F - 27 °F 89% 30.07 in 5 mi East 11.2 mph - -   Heavy Freezing Rain
8:15 AM 28.4 °F 19.7 °F 26.6 °F 93% 30.04 in 6.2 mi East 9.2 mph - N/A Rain Light Freezing Rain
8:45 AM 30.2 °F 21.3 °F 26.6 °F 86% 30.04 in 6.2 mi East 10.4 mph - N/A Rain Light Freezing Rain
9:00 AM 29 °F - 27 °F 89% 30.08 in 9 mi East 8.9 mph - -   Light Freezing Rain
9:00 AM - - - N/A% - 6.2 mi East 13.8 mph - N/A   Mostly Cloudy
9:15 AM 30.2 °F 21.3 °F 26.6 °F 86% 30.04 in 6.2 mi East 10.4 mph - N/A   Overcast
9:45 AM 30.2 °F 21.9 °F 26.6 °F 86% 30.04 in 6.2 mi East 9.2 mph - N/A   Overcast
10:00 AM 30 °F - 26 °F 78% 30.08 in 12 mi East 8.9 mph - - Rain Light Freezing Drizzle
10:15 AM 30.2 °F 21.9 °F 26.6 °F 86% 30.04 in - East 9.2 mph - N/A   Clear
10:45 AM 30.2 °F 21.9 °F 26.6 °F 86% 30.06 in - East 9.2 mph - N/A   Clear
11:00 AM 30 °F - 26 °F 79% 30.09 in 12 mi East 8.9 mph - -   Partly Cloudy
11:15 AM 30.2 °F 22.6 °F 26.6 °F 86% 30.06 in - East 8.1 mph - N/A   Clear
11:45 AM 30.2 °F 21.9 °F 26.6 °F 86% 30.06 in - East 9.2 mph - N/A   Clear
12:00 PM 30 °F - 26 °F 79% 30.10 in 12 mi East 8.9 mph - -   Partly Cloudy
12:00 PM - - - N/A% - - East 13.8 mph - N/A   Clear
12:15 PM 30.2 °F 21.9 °F 26.6 °F 86% 30.06 in - East 9.2 mph - N/A   Clear
12:45 PM 30.2 °F 21.9 °F 26.6 °F 86% 30.06 in - East 9.2 mph - N/A   Clear
1:00 PM 31 °F - 26 °F 76% 30.09 in 12 mi East 8.9 mph - -   Partly Cloudy
1:15 PM 32.0 °F 24.2 °F 26.6 °F 80% 30.06 in - East 9.2 mph - N/A   Clear
1:45 PM 32.0 °F 24.8 °F 26.6 °F 80% 30.06 in - East 8.1 mph - N/A   Clear
2:00 PM 32 °F - 27 °F 75% 30.09 in 12 mi East 8.9 mph - -   Partly Cloudy
2:15 PM 32.0 °F 23.6 °F 26.6 °F 80% 30.06 in - East 10.4 mph - N/A   Clear
2:45 PM 32.0 °F 24.2 °F 26.6 °F 80% 30.06 in - East 9.2 mph - N/A   Clear
3:00 PM 32 °F - 27 °F 76% 30.10 in 12 mi East 8.9 mph - -   Partly Cloudy
3:00 PM - - - N/A% - - East 10.4 mph - N/A   Clear
3:15 PM 32.0 °F 24.2 °F 26.6 °F 80% 30.06 in - East 9.2 mph - N/A   Clear
3:45 PM 32.0 °F 24.2 °F 26.6 °F 80% 30.06 in - East 9.2 mph - N/A   Clear
4:00 PM 32 °F - 27 °F 75% 30.11 in 12 mi East 8.9 mph - -   Partly Cloudy
4:15 PM 32.0 °F 24.2 °F 26.6 °F 80% 30.06 in - East 9.2 mph - N/A   Clear
4:45 PM 32.0 °F 24.2 °F 26.6 °F 80% 30.09 in - East 9.2 mph - N/A   Clear
5:00 PM 31 °F - 26 °F 76% 30.13 in 12 mi East 8.9 mph - -   Partly Cloudy
5:15 PM 30.2 °F 21.3 °F 26.6 °F 86% 30.09 in - ESE 10.4 mph - N/A   Clear
5:45 PM 30.2 °F 21.3 °F 26.6 °F 86% 30.09 in - East 10.4 mph - N/A   Clear
6:00 PM 30 °F - 26 °F 78% 30.14 in 12 mi East 11.2 mph - -   Partly Cloudy
6:15 PM 30.2 °F 21.3 °F 24.8 °F 80% 30.12 in - East 10.4 mph - N/A   Clear
6:45 PM 30.2 °F 21.9 °F 24.8 °F 80% 30.12 in - East 9.2 mph - N/A   Clear
7:00 PM 30 °F - 25 °F 76% 30.16 in 12 mi East 8.9 mph - -   Partly Cloudy
7:15 PM 30.2 °F 21.3 °F 24.8 °F 80% 30.12 in - East 10.4 mph - N/A   Clear
7:45 PM 30.2 °F 21.3 °F 24.8 °F 80% 30.12 in - East 10.4 mph - N/A   Clear
8:00 PM 29 °F - 24 °F 76% 30.17 in 12 mi East 8.9 mph - -   Partly Cloudy
8:15 PM 28.4 °F 19.7 °F 24.8 °F 86% 30.12 in - East 9.2 mph - N/A   Clear
8:45 PM 28.4 °F 19.1 °F 24.8 °F 86% 30.12 in - East 10.4 mph - N/A   Clear
9:00 PM 29 °F - 24 °F 75% 30.17 in 12 mi East 8.9 mph - -   Partly Cloudy
9:45 PM 28.4 °F 19.1 °F 24.8 °F 86% 30.12 in - East 10.4 mph - N/A   Clear
10:00 PM 28 °F - 24 °F 80% 30.17 in 12 mi East 8.9 mph - -   Partly Cloudy
10:45 PM 28.4 °F 20.4 °F 23.0 °F 80% 30.15 in - East 8.1 mph - N/A   Clear
11:00 PM 28 °F - 23 °F 76% 30.19 in 9 mi East 8.9 mph - -   Partly Cloudy
11:45 PM 26.6 °F 18.2 °F 23.0 °F 86% 30.15 in - East 8.1 mph - N/A   Clear